Change the Weather History Date:

Friday, December 16, 2011

  Actual Average Record
Temperature  
Mean Temperature 42 °F -  
Max Temperature 46 °F 48 °F 71 °F (2006)
Min Temperature 37 °F 34 °F 26 °F (2004)
Degree Days  
Heating Degree Days 24    
Moisture  
Dew Point 34 °F    
Average Humidity 75    
Maximum Humidity 81    
Minimum Humidity 66    
Precipitation  
Precipitation 0.04 in - - ()
Sea Level Pressure  
Sea Level Pressure 30.34 in    
Wind  
Wind Speed 0 mph (North)    
Max Wind Speed 0 mph    
Max Gust Speed -    
Visibility 10 miles    
Events      
Averages and records for this station are not official NWS values.
T = Trace of Precipitation, MM = Missing Value Source: NWS Daily Summary

Daily Weather History Graph

Daily Weather History Graph

Search for Another Location

Airport or City:

Trip Planner

Search our weather history database for the weather conditions in past years. The results will help you decide how hot, cold, wet, or windy it might be!

Date:

Astronomy

Dec. 16, 2011 Rise Set
Actual Time 7:06 AM CST 4:57 PM CST
Civil Twilight 6:38 AM CST 5:25 PM CST
Nautical Twilight 6:06 AM CST 5:56 PM CST
Astronomical Twilight 5:36 AM CST 6:27 PM CST
Moon 11:16 PM CST (12/16) 11:05 AM CST (12/16)
Length of Visible Light 10h 46m
Length of Day
9h 51m
Waning Gibbous, 64% of the Moon is Illuminated
Dec 16
Waning Gibbous
Dec 17
Last Quarter
Dec 24
New
Jan 1
First Quarter
Jan 9
Full

Hourly Weather History & Observations

Time (CST) Temp. Dew Point Humidity Pressure Visibility Wind Dir Wind Speed Gust Speed Precip Events Conditions
12:15 AM 46.4 °F 39.2 °F 76% 30.24 in 10.0 mi Calm Calm - N/A   Overcast
12:35 AM 46.4 °F 39.2 °F 76% 30.24 in 10.0 mi Calm Calm - 0.03 in   Overcast
12:55 AM 44.6 °F 39.2 °F 81% 30.23 in 10.0 mi Calm Calm - 0.03 in   Overcast
1:15 AM 44.6 °F 39.2 °F 81% 30.25 in 10.0 mi Calm Calm - N/A   Overcast
1:35 AM 44.6 °F 39.2 °F 81% 30.25 in 10.0 mi Calm Calm - N/A   Overcast
1:55 AM 44.6 °F 39.2 °F 81% 30.23 in 10.0 mi Calm Calm - N/A   Overcast
2:15 AM 44.6 °F 39.2 °F 81% 30.24 in 10.0 mi Calm Calm - N/A   Overcast
2:35 AM 44.6 °F 39.2 °F 81% 30.26 in 10.0 mi Calm Calm - N/A   Overcast
3:15 AM 44.6 °F 35.6 °F 71% 30.31 in 10.0 mi Calm Calm - N/A   Overcast
3:35 AM 42.8 °F 37.4 °F 81% 30.30 in 9.0 mi Calm Calm - N/A   Overcast
4:15 AM 42.8 °F 37.4 °F 81% 30.31 in 8.0 mi North - - N/A   Overcast
4:35 AM 42.8 °F 35.6 °F 76% 30.32 in 8.0 mi North - - N/A   Overcast
4:55 AM 41.0 °F 35.6 °F 81% 30.28 in 8.0 mi North - - 0.01 in   Overcast
5:15 AM 41.0 °F 35.6 °F 81% 30.27 in 8.0 mi North - - N/A   Overcast
5:35 AM 41.0 °F 35.6 °F 81% 30.29 in 10.0 mi North - - N/A   Overcast
5:55 AM 41.0 °F 35.6 °F 81% 30.29 in 9.0 mi North - - N/A   Overcast
6:15 AM 41.0 °F 35.6 °F 81% 30.31 in 10.0 mi North - - N/A   Overcast
6:35 AM 41.0 °F 35.6 °F 81% 30.30 in 10.0 mi North - - N/A   Overcast
6:55 AM 41.0 °F 35.6 °F 81% 30.30 in 10.0 mi North - - N/A   Overcast
8:15 AM 39.2 °F 33.8 °F 81% 30.33 in 9.0 mi North - - N/A   Overcast
8:35 AM 39.2 °F 33.8 °F 81% 30.34 in 9.0 mi North - - N/A   Overcast
9:15 AM 39.2 °F 33.8 °F 81% 30.36 in 7.0 mi North - - N/A   Overcast
9:35 AM 39.2 °F 33.8 °F 81% 30.36 in 8.0 mi North - - N/A   Overcast
9:55 AM 41.0 °F 33.8 °F 76% 30.37 in 8.0 mi North - - N/A   Overcast
10:15 AM 41.0 °F 33.8 °F 76% 30.38 in 7.0 mi North - - N/A   Overcast
10:35 AM 41.0 °F 33.8 °F 76% 30.38 in 9.0 mi North - - N/A   Overcast
10:55 AM 41.0 °F 33.8 °F 76% 30.38 in 8.0 mi North - - N/A   Overcast
11:15 AM 42.8 °F 33.8 °F 70% 30.39 in 10.0 mi North - - N/A   Overcast
11:35 AM 42.8 °F 33.8 °F 70% 30.39 in 10.0 mi North - - N/A   Overcast
11:55 AM 42.8 °F 33.8 °F 70% 30.38 in 10.0 mi North - - N/A   Overcast
12:15 PM 42.8 °F 35.6 °F 76% 30.37 in 10.0 mi North - - N/A   Overcast
12:35 PM 42.8 °F 33.8 °F 70% 30.36 in 10.0 mi North - - N/A   Overcast
12:55 PM 42.8 °F 33.8 °F 70% 30.36 in 10.0 mi North - - N/A   Overcast
1:15 PM 42.8 °F 33.8 °F 70% 30.35 in 10.0 mi North - - N/A   Overcast
1:35 PM 42.8 °F 33.8 °F 70% 30.35 in 10.0 mi North - - N/A   Overcast
2:15 PM 42.8 °F 33.8 °F 70% 30.35 in 10.0 mi North - - N/A   Overcast
2:35 PM 42.8 °F 33.8 °F 70% 30.34 in 10.0 mi North - - N/A   Overcast
2:55 PM 42.8 °F 33.8 °F 70% 30.34 in 10.0 mi North - - N/A   Overcast
3:35 PM 42.8 °F 33.8 °F 70% 30.35 in 10.0 mi North - - N/A   Overcast
3:55 PM 42.8 °F 32.0 °F 66% 30.35 in 10.0 mi North - - N/A   Mostly Cloudy
4:35 PM 41.0 °F 32.0 °F 70% 30.36 in 10.0 mi North - - N/A   Scattered Clouds
4:55 PM 39.2 °F 32.0 °F 75% 30.37 in 10.0 mi North - - N/A   Partly Cloudy
5:15 PM 39.2 °F 30.2 °F 70% 30.37 in 10.0 mi North - - N/A   Clear
5:35 PM 39.2 °F 30.2 °F 70% 30.37 in 10.0 mi North - - N/A   Clear
5:55 PM 39.2 °F 30.2 °F 70% 30.38 in 10.0 mi North - - N/A   Clear
6:15 PM 39.2 °F 30.2 °F 70% 30.39 in 10.0 mi North - - N/A   Clear
6:35 PM 39.2 °F 30.2 °F 70% 30.39 in 10.0 mi North - - N/A   Clear
6:55 PM 39.2 °F 30.2 °F 70% 30.40 in 10.0 mi North - - N/A   Clear
7:15 PM 37.4 °F 30.2 °F 75% 30.40 in 10.0 mi North - - N/A   Clear
7:35 PM 37.4 °F 30.2 °F 75% 30.40 in 10.0 mi North - - N/A   Clear
7:55 PM 37.4 °F 30.2 °F 75% 30.40 in 10.0 mi North - - N/A   Clear
8:15 PM 37.4 °F 30.2 °F 75% 30.40 in 10.0 mi North - - N/A   Clear
8:35 PM 37.4 °F 30.2 °F 75% 30.41 in 10.0 mi North - - N/A   Clear
8:55 PM 37.4 °F 30.2 °F 75% 30.41 in 10.0 mi North - - N/A   Clear
9:15 PM 37.4 °F 30.2 °F 75% 30.41 in 10.0 mi North - - N/A   Clear
9:35 PM 37.4 °F 30.2 °F 75% 30.41 in 10.0 mi North - - N/A   Clear
9:55 PM 37.4 °F 30.2 °F 75% 30.41 in 10.0 mi North - - N/A   Clear
10:15 PM 35.6 °F 30.2 °F 81% 30.42 in 5.0 mi North - - N/A   Clear
10:35 PM 35.6 °F 30.2 °F 81% 30.42 in 5.0 mi North - - N/A   Clear
10:55 PM 35.6 °F 28.4 °F 75% 30.42 in 6.0 mi North - - N/A   Clear
11:15 PM 33.8 °F 28.4 °F 81% 30.42 in 4.0 mi North - - N/A   Clear
11:35 PM 33.8 °F 30.2 °F 87% 30.42 in 4.0 mi North - - N/A   Clear
11:55 PM 35.6 °F 30.2 °F 81% 30.42 in 5.0 mi North - - N/A   Clear